Аэропорт Баку (UBBB)

baku-airport

Международный аэропорт Баку

ICAO: UBBB, IATA: GYD

Бакинский международный аэропорт имени Гейдара Алиева — один из пяти международных аэропортов, обслуживающих Азербайджан. Находится в 25 километрах к востоку от Баку. Порт приписки национальной авиакомпании «Азербайджанские авиалинии».

Принимаемые типы ВС
Ан-12, Ан-24, Ан-26, Ан-28, Ан-30, Ан-32, Ан-72, Ан-74, Ан-124(по согласованию), Ил-62, Ил-76, Ту-134, Ту-154, Як-40, Як-42, Airbus A319, Airbus A320, Airbus A321, Boeing 737, Boeing 747, Boeing 757, Boeing 767 и др. типы ВС 3-4 класса, вертолёты всех типов.

 Схемы: Jeppesen

Сценарии: бесплатные демо-версии с уменьшенным разрешением:

 fs9     fsx     Prepar

платные: http://www.drzewiecki-design.net/

METAR:

UBBB 250430Z 02004KT CAVOK 30/20 Q1013 R88/CLRD// NOSIG

TAF TAF UBBB 241714Z 2418/2518 05006KT CAVOK TX33/2510Z TN21/2502Z TEMPO 2418/2503 VRB04KT 3000 BR FEW008 BECMG 2504/2506 11010KT TEMPO 2506/2512 06012KT BECMG 2516/2518 36008KT